This is the latest recevied weather packets stored in our database for station/object KD8OZS. If no packets are shown the sender has not sent any weather packets the latest 10 day(s).
| Time | Temp. | Humidity | Pressure | Rain* | Wind** | Luminosity | Snow |
|---|---|---|---|---|---|---|---|
| 1787859023 | 27.78° C | 68% | 1007.1 hPa | 0 mm | - | 486 W/m² | - |
| 1787858718 | 27.78° C | 64% | 1007.1 hPa | 0 mm | - | 119 W/m² | - |
| 1787858414 | 28.33° C | 64% | 1007.2 hPa | 0 mm | - | 138 W/m² | - |
| 1787858108 | 28.33° C | 63% | 1007.3 hPa | 0 mm | - | 587 W/m² | - |
| 1787857803 | 27.78° C | 67% | 1007.2 hPa | 0 mm | - | 549 W/m² | - |
| 1787857499 | 27.78° C | 62% | 1007 hPa | 0 mm | - | 385 W/m² | - |
| 1787857197 | 28.33° C | 62% | 1007.1 hPa | 0 mm | - | 615 W/m² | - |
| 1787856892 | 27.78° C | 64% | 1007.2 hPa | 0 mm | - | 628 W/m² | - |
| 1787856591 | 27.78° C | 64% | 1007 hPa | 0 mm | - | 567 W/m² | - |
| 1787856287 | 27.78° C | 64% | 1007.2 hPa | 0 mm | - | 528 W/m² | - |
| 1787855983 | 27.78° C | 67% | 1007.2 hPa | 0 mm | - | 622 W/m² | - |
| 1787855682 | 26.67° C | 75% | 1007.4 hPa | 0 mm | - | 677 W/m² | - |
| 1787855377 | 26.67° C | 71% | 1007.4 hPa | 0 mm | - | 134 W/m² | - |
| 1787855072 | 27.22° C | 69% | 1007.4 hPa | 0 mm | - | 125 W/m² | - |
| 1787854768 | 27.78° C | 66% | 1007.4 hPa | 0 mm | - | 787 W/m² | - |
| 1787854467 | 27.78° C | 67% | 1007 hPa | 0 mm | - | 233 W/m² | - |
| 1787854162 | 28.33° C | 70% | 1007.4 hPa | 0 mm | - | 281 W/m² | - |
| 1787853857 | 27.78° C | 67% | 1007.3 hPa | 0 mm | - | 784 W/m² | - |
| 1787853555 | 27.78° C | 72% | 1007.3 hPa | 0 mm | - | 720 W/m² | - |
| 1787853250 | 26.67° C | 73% | 1007.4 hPa | 0 mm | - | 707 W/m² | - |
| 1787852950 | 26.67° C | 75% | 1007.2 hPa | 0 mm | - | 202 W/m² | - |
| 1787852644 | 26.11° C | 76% | 1007.3 hPa | 0 mm | - | 146 W/m² | - |
| 1787852344 | 26.67° C | 76% | 1007.4 hPa | 0 mm | - | 140 W/m² | - |
| 1787852043 | 26.67° C | 75% | 1007.2 hPa | 0 mm | - | 734 W/m² | - |
| 1787851743 | 26.67° C | 75% | 1007.4 hPa | 0 mm | - | 416 W/m² | - |
* Rain latest hour (hover to see other rain measurements)
** Current wind speed in m/s (hover to see current wind gust speed)